Location: Bessat
(45.8735°N, 1.9924°E)
Time: 09:04:25
(UTC+00:00)

CARTOSAT-1 - Pass Details

Date: 11 May 2021
Orbit: 616 x 618 km, 97.8° (Epoch: 15 June)

Event Time Altitude Azimuth Distance (km) Brightness Sun altitude
Exits shadow 20:56:44 26° 143° (SE) 1,215 4.4 -15.2°
Maximum altitude 20:58:59 59° 73° (ENE) 715 3.7 -15.4°
Drops below altitude 10° 21:03:15 10° 354° (N) 1,992 7.0 -15.9°
Sets 21:05:28 0° 351° (N) 2,902 8.0 -16.2°
